contact:dominique.lefevre@mio.osupytheas.fr, maurice.libes@osupytheas.fr, didier.mallarino@osupytheas.fr
Project:EMSO http://www.emso-fr.org/EMSO-France
Depth: 2436.0 m
Title:EMSO Ligure Ouest : Data MII capteur MICROCAT
DateTime_Computer,Latitude,Longitude,Temperature,Conductivity,Pressure,DateTime_Instrument
DateTime_Computer,Latitude,Longitude,degC,S m-1,dbar,DateTime_Instrument
2021-06-17T00:01:40Z,42.805,6.029,13.2996,4.60009,2470.614,2021-6-17T02:02:54Z
2021-06-17T00:04:43Z,42.805,6.029,13.2997,4.60007,2470.6,2021-6-17T02:05:57Z
2021-06-17T00:07:46Z,42.805,6.029,13.2999,4.60009,2470.567,2021-6-17T02:09:00Z
2021-06-17T00:10:49Z,42.805,6.029,13.2998,4.60006,2470.614,2021-6-17T02:12:03Z
2021-06-17T00:13:53Z,42.805,6.029,13.2996,4.60006,2470.577,2021-6-17T02:15:06Z
2021-06-17T00:16:56Z,42.805,6.029,13.2999,4.60010,2470.637,2021-6-17T02:18:09Z
2021-06-17T00:19:59Z,42.805,6.029,13.2997,4.60007,2470.6,2021-6-17T02:21:12Z
2021-06-17T00:23:02Z,42.805,6.029,13.2996,4.60006,2470.614,2021-6-17T02:24:16Z
2021-06-17T00:26:05Z,42.805,6.029,13.2998,4.60007,2470.614,2021-6-17T02:27:19Z
2021-06-17T00:29:08Z,42.805,6.029,13.2996,4.60006,2470.591,2021-6-17T02:30:22Z
2021-06-17T00:32:11Z,42.805,6.029,13.2998,4.60007,2470.614,2021-6-17T02:33:25Z
2021-06-17T00:35:14Z,42.805,6.029,13.3000,4.60007,2470.614,2021-6-17T02:36:28Z
2021-06-17T00:38:18Z,42.805,6.029,13.2998,4.60007,2470.591,2021-6-17T02:39:31Z
2021-06-17T00:41:21Z,42.805,6.029,13.2996,4.60008,2470.614,2021-6-17T02:42:34Z
2021-06-17T00:44:24Z,42.805,6.029,13.2998,4.60009,2470.591,2021-6-17T02:45:37Z
2021-06-17T00:47:27Z,42.805,6.029,13.2996,4.60006,2470.591,2021-6-17T02:48:41Z
2021-06-17T00:50:30Z,42.805,6.029,13.2994,4.60009,2470.577,2021-6-17T02:51:44Z
2021-06-17T00:53:33Z,42.805,6.029,13.2996,4.60008,2470.6,2021-6-17T02:54:47Z
2021-06-17T00:56:36Z,42.805,6.029,13.2998,4.60006,2470.553,2021-6-17T02:57:50Z
2021-06-17T00:59:39Z,42.805,6.029,13.3000,4.60009,2470.577,2021-6-17T03:00:53Z
2021-06-17T01:02:43Z,42.805,6.029,13.3002,4.60011,2470.6,2021-6-17T03:03:56Z
2021-06-17T01:05:46Z,42.805,6.029,13.3000,4.60009,2470.6,2021-6-17T03:06:59Z
2021-06-17T01:08:49Z,42.805,6.029,13.2998,4.60009,2470.591,2021-6-17T03:10:02Z
2021-06-17T01:11:52Z,42.805,6.029,13.2996,4.60006,2470.53,2021-6-17T03:13:06Z
2021-06-17T01:14:55Z,42.805,6.029,13.2996,4.60009,2470.591,2021-6-17T03:16:09Z
2021-06-17T01:17:58Z,42.805,6.029,13.2996,4.60006,2470.591,2021-6-17T03:19:12Z
2021-06-17T01:21:01Z,42.805,6.029,13.2997,4.60006,2470.591,2021-6-17T03:22:15Z
2021-06-17T01:24:04Z,42.805,6.029,13.2996,4.60006,2470.614,2021-6-17T03:25:18Z
2021-06-17T01:27:08Z,42.805,6.029,13.2998,4.60006,2470.577,2021-6-17T03:28:21Z
2021-06-17T01:30:11Z,42.805,6.029,13.2998,4.60009,2470.567,2021-6-17T03:31:24Z
2021-06-17T01:33:14Z,42.805,6.029,13.2996,4.60006,2470.6,2021-6-17T03:34:27Z
2021-06-17T01:36:17Z,42.805,6.029,13.2993,4.60007,2470.567,2021-6-17T03:37:31Z
2021-06-17T01:39:20Z,42.805,6.029,13.2999,4.60006,2470.577,2021-6-17T03:40:34Z
2021-06-17T01:42:23Z,42.805,6.029,13.2996,4.60006,2470.591,2021-6-17T03:43:37Z
2021-06-17T01:45:26Z,42.805,6.029,13.2995,4.60006,2470.567,2021-6-17T03:46:40Z
2021-06-17T01:48:29Z,42.805,6.029,13.3000,4.60006,2470.591,2021-6-17T03:49:43Z
2021-06-17T01:51:33Z,42.805,6.029,13.2995,4.60005,2470.567,2021-6-17T03:52:46Z
2021-06-17T01:54:36Z,42.805,6.029,13.2995,4.60006,2470.567,2021-6-17T03:55:49Z
2021-06-17T01:57:39Z,42.805,6.029,13.2999,4.60005,2470.53,2021-6-17T03:58:52Z
2021-06-17T02:00:42Z,42.805,6.029,13.2996,4.60008,2470.53,2021-6-17T04:01:56Z
2021-06-17T02:03:45Z,42.805,6.029,13.2996,4.60010,2470.553,2021-6-17T04:04:59Z
2021-06-17T02:06:48Z,42.805,6.029,13.2995,4.60005,2470.577,2021-6-17T04:08:02Z
2021-06-17T02:09:51Z,42.805,6.029,13.2998,4.60006,2470.553,2021-6-17T04:11:05Z
2021-06-17T02:12:54Z,42.805,6.029,13.2991,4.60005,2470.53,2021-6-17T04:14:08Z
2021-06-17T02:15:57Z,42.805,6.029,13.2998,4.60006,2470.553,2021-6-17T04:17:11Z
2021-06-17T02:19:01Z,42.805,6.029,13.2995,4.60006,2470.567,2021-6-17T04:20:14Z
2021-06-17T02:22:04Z,42.805,6.029,13.2994,4.60006,2470.53,2021-6-17T04:23:17Z
2021-06-17T02:25:07Z,42.805,6.029,13.2998,4.60005,2470.52,2021-6-17T04:26:21Z
2021-06-17T02:28:10Z,42.805,6.029,13.2999,4.60006,2470.544,2021-6-17T04:29:24Z
2021-06-17T02:31:13Z,42.805,6.029,13.2998,4.60007,2470.53,2021-6-17T04:32:27Z
2021-06-17T02:34:16Z,42.805,6.029,13.3000,4.60008,2470.53,2021-6-17T04:35:30Z
2021-06-17T02:37:19Z,42.805,6.029,13.2998,4.60006,2470.577,2021-6-17T04:38:33Z
2021-06-17T02:40:22Z,42.805,6.029,13.2997,4.60005,2470.53,2021-6-17T04:41:36Z
2021-06-17T02:43:26Z,42.805,6.029,13.2998,4.60005,2470.544,2021-6-17T04:44:39Z
2021-06-17T02:46:29Z,42.805,6.029,13.2996,4.60005,2470.567,2021-6-17T04:47:42Z
2021-06-17T02:49:32Z,42.805,6.029,13.2996,4.60006,2470.53,2021-6-17T04:50:46Z
2021-06-17T02:52:35Z,42.805,6.029,13.2998,4.60004,2470.507,2021-6-17T04:53:49Z
2021-06-17T02:55:38Z,42.805,6.029,13.2996,4.60006,2470.544,2021-6-17T04:56:52Z
2021-06-17T02:58:41Z,42.805,6.029,13.2998,4.60005,2470.53,2021-6-17T04:59:55Z
2021-06-17T03:01:44Z,42.805,6.029,13.2996,4.60006,2470.53,2021-6-17T05:02:58Z
2021-06-17T03:04:47Z,42.805,6.029,13.2996,4.60006,2470.544,2021-6-17T05:06:01Z
2021-06-17T03:07:51Z,42.805,6.029,13.2998,4.60006,2470.507,2021-6-17T05:09:04Z
2021-06-17T03:10:54Z,42.805,6.029,13.2997,4.60005,2470.53,2021-6-17T05:12:07Z
2021-06-17T03:13:57Z,42.805,6.029,13.2996,4.60006,2470.553,2021-6-17T05:15:11Z
2021-06-17T03:17:00Z,42.805,6.029,13.2997,4.60006,2470.497,2021-6-17T05:18:14Z
2021-06-17T03:20:03Z,42.805,6.029,13.2994,4.60004,2470.53,2021-6-17T05:21:17Z
2021-06-17T03:23:06Z,42.805,6.029,13.2998,4.60003,2470.507,2021-6-17T05:24:20Z
2021-06-17T03:26:09Z,42.805,6.029,13.2997,4.60003,2470.544,2021-6-17T05:27:23Z
2021-06-17T03:29:12Z,42.805,6.029,13.2995,4.60006,2470.53,2021-6-17T05:30:26Z
2021-06-17T03:32:16Z,42.805,6.029,13.2999,4.60005,2470.483,2021-6-17T05:33:29Z
2021-06-17T03:35:19Z,42.805,6.029,13.2996,4.60005,2470.497,2021-6-17T05:36:32Z
2021-06-17T03:38:22Z,42.805,6.029,13.2996,4.60006,2470.53,2021-6-17T05:39:36Z
2021-06-17T03:41:25Z,42.805,6.029,13.2999,4.60005,2470.52,2021-6-17T05:42:39Z
2021-06-17T03:44:28Z,42.805,6.029,13.2995,4.60005,2470.52,2021-6-17T05:45:42Z
2021-06-17T03:47:31Z,42.805,6.029,13.3000,4.60004,2470.507,2021-6-17T05:48:45Z
2021-06-17T03:50:34Z,42.805,6.029,13.2995,4.60003,2470.52,2021-6-17T05:51:48Z
2021-06-17T03:53:37Z,42.805,6.029,13.2998,4.60003,2470.497,2021-6-17T05:54:51Z
2021-06-17T03:56:41Z,42.805,6.029,13.2993,4.60004,2470.47,2021-6-17T05:57:54Z
2021-06-17T03:59:44Z,42.805,6.029,13.2995,4.60003,2470.52,2021-6-17T06:00:57Z
2021-06-17T04:02:47Z,42.805,6.029,13.3001,4.60004,2470.507,2021-6-17T06:04:00Z
2021-06-17T04:05:50Z,42.805,6.029,13.2993,4.60003,2470.507,2021-6-17T06:07:04Z
2021-06-17T04:08:53Z,42.805,6.029,13.2998,4.60006,2470.507,2021-6-17T06:10:07Z
2021-06-17T04:11:56Z,42.805,6.029,13.2998,4.60003,2470.47,2021-6-17T06:13:10Z
2021-06-17T04:14:59Z,42.805,6.029,13.2998,4.60004,2470.52,2021-6-17T06:16:13Z
2021-06-17T04:18:02Z,42.805,6.029,13.2996,4.60004,2470.497,2021-6-17T06:19:16Z
2021-06-17T04:21:06Z,42.805,6.029,13.3000,4.60005,2470.483,2021-6-17T06:22:19Z
2021-06-17T04:24:09Z,42.805,6.029,13.2994,4.60006,2470.483,2021-6-17T06:25:22Z
2021-06-17T04:27:12Z,42.805,6.029,13.2994,4.60005,2470.52,2021-6-17T06:28:25Z
2021-06-17T04:30:15Z,42.805,6.029,13.2998,4.60003,2470.483,2021-6-17T06:31:29Z
2021-06-17T04:33:18Z,42.805,6.029,13.2998,4.60006,2470.483,2021-6-17T06:34:32Z
2021-06-17T04:36:21Z,42.805,6.029,13.3000,4.60003,2470.46,2021-6-17T06:37:35Z
2021-06-17T04:39:24Z,42.805,6.029,13.2999,4.60005,2470.483,2021-6-17T06:40:38Z
2021-06-17T04:42:27Z,42.805,6.029,13.3005,4.60003,2470.46,2021-6-17T06:43:41Z
2021-06-17T04:45:31Z,42.805,6.029,13.2998,4.60004,2470.483,2021-6-17T06:46:44Z
2021-06-17T04:48:34Z,42.805,6.029,13.2998,4.60004,2470.497,2021-6-17T06:49:47Z
2021-06-17T04:51:37Z,42.805,6.029,13.2998,4.60003,2470.474,2021-6-17T06:52:50Z
2021-06-17T04:54:40Z,42.805,6.029,13.3004,4.60003,2470.45,2021-6-17T06:55:54Z
2021-06-17T04:57:43Z,42.805,6.029,13.2996,4.60005,2470.46,2021-6-17T06:58:57Z
2021-06-17T05:00:46Z,42.805,6.029,13.2998,4.60006,2470.46,2021-6-17T07:02:00Z
2021-06-17T05:03:49Z,42.805,6.029,13.2996,4.60006,2470.474,2021-6-17T07:05:03Z
2021-06-17T05:06:52Z,42.805,6.029,13.2998,4.60006,2470.437,2021-6-17T07:08:06Z
2021-06-17T05:09:56Z,42.805,6.029,13.2997,4.60004,2470.483,2021-6-17T07:11:09Z
2021-06-17T05:12:59Z,42.805,6.029,13.2998,4.60003,2470.497,2021-6-17T07:14:12Z
2021-06-17T05:16:02Z,42.805,6.029,13.3005,4.60003,2470.474,2021-6-17T07:17:15Z
2021-06-17T05:19:05Z,42.805,6.029,13.2997,4.60004,2470.483,2021-6-17T07:20:19Z
2021-06-17T05:22:08Z,42.805,6.029,13.2996,4.60003,2470.437,2021-6-17T07:23:22Z
2021-06-17T05:25:11Z,42.805,6.029,13.2996,4.60004,2470.474,2021-6-17T07:26:25Z
2021-06-17T05:28:14Z,42.805,6.029,13.3000,4.60006,2470.46,2021-6-17T07:29:28Z
2021-06-17T05:31:17Z,42.805,6.029,13.2996,4.60004,2470.46,2021-6-17T07:32:31Z
2021-06-17T05:34:20Z,42.805,6.029,13.2997,4.60004,2470.46,2021-6-17T07:35:34Z
2021-06-17T05:37:24Z,42.805,6.029,13.2997,4.60003,2470.46,2021-6-17T07:38:37Z
2021-06-17T05:40:27Z,42.805,6.029,13.2993,4.60006,2470.46,2021-6-17T07:41:40Z
2021-06-17T05:43:30Z,42.805,6.029,13.2998,4.60009,2470.437,2021-6-17T07:44:44Z
2021-06-17T05:46:33Z,42.805,6.029,13.2997,4.60008,2470.483,2021-6-17T07:47:47Z
2021-06-17T05:49:36Z,42.805,6.029,13.2998,4.60003,2470.46,2021-6-17T07:50:50Z
2021-06-17T05:52:39Z,42.805,6.029,13.2998,4.60003,2470.483,2021-6-17T07:53:53Z
2021-06-17T05:55:42Z,42.805,6.029,13.2995,4.60005,2470.46,2021-6-17T07:56:56Z
2021-06-17T05:58:46Z,42.805,6.029,13.2997,4.60002,2470.46,2021-6-17T07:59:59Z
2021-06-17T06:01:49Z,42.805,6.029,13.2993,4.60005,2470.427,2021-6-17T08:03:02Z
2021-06-17T06:04:52Z,42.805,6.029,13.2996,4.60005,2470.45,2021-6-17T08:06:05Z
2021-06-17T06:07:55Z,42.805,6.029,13.2995,4.60008,2470.474,2021-6-17T08:09:09Z
2021-06-17T06:10:58Z,42.805,6.029,13.2995,4.60003,2470.46,2021-6-17T08:12:12Z
2021-06-17T06:14:01Z,42.805,6.029,13.2998,4.60009,2470.474,2021-6-17T08:15:15Z
2021-06-17T06:17:04Z,42.805,6.029,13.2996,4.60004,2470.45,2021-6-17T08:18:18Z
2021-06-17T06:20:07Z,42.805,6.029,13.2999,4.60005,2470.474,2021-6-17T08:21:21Z
2021-06-17T06:23:10Z,42.805,6.029,13.2998,4.60003,2470.45,2021-6-17T08:24:24Z
2021-06-17T06:26:14Z,42.805,6.029,13.2998,4.60003,2470.45,2021-6-17T08:27:27Z
2021-06-17T06:29:17Z,42.805,6.029,13.2996,4.60003,2470.46,2021-6-17T08:30:30Z
2021-06-17T06:32:20Z,42.805,6.029,13.2992,4.60003,2470.46,2021-6-17T08:33:34Z
2021-06-17T06:35:23Z,42.805,6.029,13.2996,4.60002,2470.437,2021-6-17T08:36:37Z
2021-06-17T06:38:26Z,42.805,6.029,13.2998,4.60003,2470.45,2021-6-17T08:39:40Z
2021-06-17T06:41:29Z,42.805,6.029,13.2997,4.60002,2470.45,2021-6-17T08:42:43Z
2021-06-17T06:44:32Z,42.805,6.029,13.2998,4.60002,2470.45,2021-6-17T08:45:46Z
2021-06-17T06:47:35Z,42.805,6.029,13.2996,4.60002,2470.413,2021-6-17T08:48:49Z
2021-06-17T06:50:39Z,42.805,6.029,13.2999,4.60003,2470.39,2021-6-17T08:51:52Z
2021-06-17T06:53:42Z,42.805,6.029,13.2996,4.60006,2470.437,2021-6-17T08:54:55Z
2021-06-17T06:56:45Z,42.805,6.029,13.2992,4.60006,2470.45,2021-6-17T08:57:59Z
2021-06-17T06:59:48Z,42.805,6.029,13.2997,4.60003,2470.413,2021-6-17T09:01:02Z
2021-06-17T07:02:51Z,42.805,6.029,13.2995,4.60004,2470.46,2021-6-17T09:04:05Z
2021-06-17T07:05:54Z,42.805,6.029,13.2996,4.60002,2470.437,2021-6-17T09:07:08Z
2021-06-17T07:08:57Z,42.805,6.029,13.2993,4.60005,2470.427,2021-6-17T09:10:11Z
2021-06-17T07:12:00Z,42.805,6.029,13.2995,4.60008,2470.437,2021-6-17T09:13:14Z
2021-06-17T07:15:04Z,42.805,6.029,13.2996,4.60003,2470.413,2021-6-17T09:16:17Z
2021-06-17T07:18:07Z,42.805,6.029,13.2998,4.60002,2470.427,2021-6-17T09:19:20Z
2021-06-17T07:21:10Z,42.805,6.029,13.2997,4.60002,2470.437,2021-6-17T09:22:23Z
2021-06-17T07:24:13Z,42.805,6.029,13.2997,4.60010,2470.474,2021-6-17T09:25:27Z
2021-06-17T07:27:16Z,42.805,6.029,13.2996,4.60005,2470.437,2021-6-17T09:28:30Z
2021-06-17T07:30:19Z,42.805,6.029,13.2995,4.60003,2470.474,2021-6-17T09:31:33Z
2021-06-17T07:33:22Z,42.805,6.029,13.2997,4.60005,2470.45,2021-6-17T09:34:36Z
2021-06-17T07:36:25Z,42.805,6.029,13.2995,4.60004,2470.437,2021-6-17T09:37:39Z
2021-06-17T07:39:29Z,42.805,6.029,13.2994,4.60003,2470.413,2021-6-17T09:40:42Z
2021-06-17T07:42:32Z,42.805,6.029,13.2998,4.60003,2470.46,2021-6-17T09:43:45Z
2021-06-17T07:45:35Z,42.805,6.029,13.2994,4.60003,2470.437,2021-6-17T09:46:48Z
2021-06-17T07:48:38Z,42.805,6.029,13.2998,4.60006,2470.474,2021-6-17T09:49:52Z
2021-06-17T07:51:41Z,42.805,6.029,13.2996,4.60004,2470.437,2021-6-17T09:52:55Z
2021-06-17T07:54:44Z,42.805,6.029,13.2998,4.60003,2470.46,2021-6-17T09:55:58Z
2021-06-17T07:57:47Z,42.805,6.029,13.2996,4.60002,2470.437,2021-6-17T09:59:01Z
2021-06-17T08:00:50Z,42.805,6.029,13.3000,4.60003,2470.437,2021-6-17T10:02:04Z
2021-06-17T08:03:54Z,42.805,6.029,13.2996,4.60004,2470.45,2021-6-17T10:05:07Z
2021-06-17T08:06:57Z,42.805,6.029,13.2998,4.60007,2470.45,2021-6-17T10:08:10Z
2021-06-17T08:10:00Z,42.805,6.029,13.2996,4.60004,2470.45,2021-6-17T10:11:13Z
2021-06-17T08:13:03Z,42.805,6.029,13.2996,4.60003,2470.437,2021-6-17T10:14:17Z
2021-06-17T08:16:06Z,42.805,6.029,13.2994,4.60006,2470.437,2021-6-17T10:17:20Z
2021-06-17T08:19:09Z,42.805,6.029,13.2995,4.60003,2470.45,2021-6-17T10:20:23Z
2021-06-17T08:22:12Z,42.805,6.029,13.3000,4.60002,2470.437,2021-6-17T10:23:26Z
2021-06-17T08:25:15Z,42.805,6.029,13.2998,4.60004,2470.45,2021-6-17T10:26:29Z
2021-06-17T08:28:19Z,42.805,6.029,13.2995,4.60003,2470.427,2021-6-17T10:29:32Z
2021-06-17T08:31:22Z,42.805,6.029,13.2994,4.60006,2470.413,2021-6-17T10:32:35Z
2021-06-17T08:34:25Z,42.805,6.029,13.2994,4.60005,2470.46,2021-6-17T10:35:39Z
2021-06-17T08:37:28Z,42.805,6.029,13.2996,4.60004,2470.45,2021-6-17T10:38:42Z
2021-06-17T08:40:31Z,42.805,6.029,13.3001,4.60003,2470.427,2021-6-17T10:41:45Z
2021-06-17T08:43:34Z,42.805,6.029,13.2997,4.60003,2470.413,2021-6-17T10:44:48Z
2021-06-17T08:46:37Z,42.805,6.029,13.2999,4.60002,2470.437,2021-6-17T10:47:51Z
2021-06-17T08:49:40Z,42.805,6.029,13.3000,4.60002,2470.427,2021-6-17T10:50:54Z
2021-06-17T08:52:44Z,42.805,6.029,13.2995,4.60014,2470.46,2021-6-17T10:53:57Z
2021-06-17T08:55:47Z,42.805,6.029,13.2998,4.60006,2470.45,2021-6-17T10:57:00Z
2021-06-17T08:58:50Z,42.805,6.029,13.2998,4.60014,2470.46,2021-6-17T11:00:04Z
2021-06-17T09:01:53Z,42.805,6.029,13.2996,4.60004,2470.46,2021-6-17T11:03:07Z
2021-06-17T09:04:56Z,42.805,6.029,13.2996,4.60006,2470.413,2021-6-17T11:06:10Z
2021-06-17T09:07:59Z,42.805,6.029,13.2997,4.60009,2470.497,2021-6-17T11:09:13Z
2021-06-17T09:11:02Z,42.805,6.029,13.2996,4.60003,2470.45,2021-6-17T11:12:16Z
2021-06-17T09:14:05Z,42.805,6.029,13.2992,4.60003,2470.507,2021-6-17T11:15:19Z
2021-06-17T09:17:09Z,42.805,6.029,13.2994,4.60004,2470.437,2021-6-17T11:18:22Z
2021-06-17T09:20:12Z,42.805,6.029,13.2995,4.60003,2470.437,2021-6-17T11:21:25Z
2021-06-17T09:23:15Z,42.805,6.029,13.2997,4.60007,2470.474,2021-6-17T11:24:29Z
2021-06-17T09:26:18Z,42.805,6.029,13.2993,4.60004,2470.446,2021-6-17T11:27:32Z
2021-06-17T09:29:21Z,42.805,6.029,13.3000,4.60003,2470.437,2021-6-17T11:30:35Z
2021-06-17T09:32:24Z,42.805,6.029,13.2996,4.60003,2470.46,2021-6-17T11:33:38Z
2021-06-17T09:35:27Z,42.805,6.029,13.2994,4.60005,2470.497,2021-6-17T11:36:41Z
2021-06-17T09:38:30Z,42.805,6.029,13.2995,4.60003,2470.46,2021-6-17T11:39:44Z
2021-06-17T09:41:34Z,42.805,6.029,13.2998,4.60003,2470.46,2021-6-17T11:42:47Z
2021-06-17T09:44:37Z,42.805,6.029,13.2993,4.60005,2470.437,2021-6-17T11:45:50Z
2021-06-17T09:47:40Z,42.805,6.029,13.2996,4.60006,2470.437,2021-6-17T11:48:54Z
2021-06-17T09:50:43Z,42.805,6.029,13.2997,4.60006,2470.46,2021-6-17T11:51:57Z
2021-06-17T09:53:46Z,42.805,6.029,13.2994,4.60003,2470.46,2021-6-17T11:55:00Z
2021-06-17T09:56:49Z,42.805,6.029,13.2995,4.60005,2470.437,2021-6-17T11:58:03Z
2021-06-17T09:59:52Z,42.805,6.029,13.2993,4.60004,2470.46,2021-6-17T12:01:06Z
2021-06-17T10:02:55Z,42.805,6.029,13.2996,4.60003,2470.46,2021-6-17T12:04:09Z
2021-06-17T10:05:59Z,42.805,6.029,13.2997,4.60003,2470.46,2021-6-17T12:07:12Z
2021-06-17T10:09:02Z,42.805,6.029,13.2998,4.60003,2470.483,2021-6-17T12:10:15Z
2021-06-17T10:12:05Z,42.805,6.029,13.2996,4.60006,2470.474,2021-6-17T12:13:19Z
2021-06-17T10:15:08Z,42.805,6.029,13.2995,4.60005,2470.46,2021-6-17T12:16:22Z
2021-06-17T10:18:11Z,42.805,6.029,13.2994,4.60006,2470.46,2021-6-17T12:19:25Z
2021-06-17T10:21:14Z,42.805,6.029,13.2992,4.60006,2470.497,2021-6-17T12:22:28Z
2021-06-17T10:24:17Z,42.805,6.029,13.2996,4.60005,2470.497,2021-6-17T12:25:31Z
2021-06-17T10:27:21Z,42.805,6.029,13.2995,4.60004,2470.46,2021-6-17T12:28:34Z
2021-06-17T10:30:24Z,42.805,6.029,13.2997,4.60006,2470.497,2021-6-17T12:31:37Z
2021-06-17T10:33:27Z,42.805,6.029,13.2996,4.60003,2470.483,2021-6-17T12:34:41Z
2021-06-17T10:36:30Z,42.805,6.029,13.2998,4.60006,2470.483,2021-6-17T12:37:44Z
2021-06-17T10:39:33Z,42.805,6.029,13.2991,4.60006,2470.474,2021-6-17T12:40:47Z
2021-06-17T10:42:36Z,42.805,6.029,13.2999,4.60004,2470.46,2021-6-17T12:43:50Z
2021-06-17T10:45:39Z,42.805,6.029,13.2997,4.60007,2470.474,2021-6-17T12:46:53Z
2021-06-17T10:48:42Z,42.805,6.029,13.2998,4.60003,2470.437,2021-6-17T12:49:56Z
2021-06-17T10:51:46Z,42.805,6.029,13.2998,4.60007,2470.483,2021-6-17T12:52:59Z
2021-06-17T10:54:49Z,42.805,6.029,13.2996,4.60006,2470.497,2021-6-17T12:56:02Z
2021-06-17T10:57:52Z,42.805,6.029,13.2997,4.60007,2470.507,2021-6-17T12:59:06Z
2021-06-17T11:00:55Z,42.805,6.029,13.2997,4.60004,2470.46,2021-6-17T13:02:09Z
2021-06-17T11:03:58Z,42.805,6.029,13.2998,4.60006,2470.483,2021-6-17T13:05:12Z
2021-06-17T11:07:01Z,42.805,6.029,13.2995,4.60006,2470.497,2021-6-17T13:08:15Z
2021-06-17T11:10:04Z,42.805,6.029,13.2998,4.60004,2470.483,2021-6-17T13:11:18Z
2021-06-17T11:13:07Z,42.805,6.029,13.2998,4.60008,2470.507,2021-6-17T13:14:21Z
2021-06-17T11:16:11Z,42.805,6.029,13.2994,4.60009,2470.483,2021-6-17T13:17:24Z
2021-06-17T11:19:14Z,42.805,6.029,13.2995,4.60007,2470.483,2021-6-17T13:20:27Z
2021-06-17T11:22:17Z,42.805,6.029,13.2992,4.60005,2470.53,2021-6-17T13:23:31Z
2021-06-17T11:25:20Z,42.805,6.029,13.2998,4.60005,2470.507,2021-6-17T13:26:34Z
2021-06-17T11:28:23Z,42.805,6.029,13.2996,4.60006,2470.497,2021-6-17T13:29:37Z
2021-06-17T11:31:26Z,42.805,6.029,13.2997,4.60009,2470.483,2021-6-17T13:32:40Z
2021-06-17T11:34:29Z,42.805,6.029,13.2996,4.60005,2470.497,2021-6-17T13:35:43Z
2021-06-17T11:37:33Z,42.805,6.029,13.2996,4.60006,2470.497,2021-6-17T13:38:46Z
2021-06-17T11:40:36Z,42.805,6.029,13.2999,4.60004,2470.46,2021-6-17T13:41:49Z
2021-06-17T11:43:39Z,42.805,6.029,13.2995,4.60004,2470.497,2021-6-17T13:44:52Z
2021-06-17T11:46:42Z,42.805,6.029,13.2997,4.60006,2470.46,2021-6-17T13:47:56Z
2021-06-17T11:49:45Z,42.805,6.029,13.3000,4.60006,2470.497,2021-6-17T13:50:59Z
2021-06-17T11:52:48Z,42.805,6.029,13.2996,4.60005,2470.483,2021-6-17T13:54:02Z
2021-06-17T11:55:51Z,42.805,6.029,13.2993,4.60007,2470.46,2021-6-17T13:57:05Z
2021-06-17T11:58:54Z,42.805,6.029,13.2996,4.60008,2470.474,2021-6-17T14:00:08Z
2021-06-17T12:01:58Z,42.805,6.029,13.2998,4.60006,2470.507,2021-6-17T14:03:11Z
2021-06-17T12:05:01Z,42.805,6.029,13.2998,4.60009,2470.483,2021-6-17T14:06:14Z
2021-06-17T12:08:04Z,42.805,6.029,13.2995,4.60009,2470.483,2021-6-17T14:09:17Z
2021-06-17T12:11:07Z,42.805,6.029,13.2996,4.60004,2470.483,2021-6-17T14:12:21Z
2021-06-17T12:14:10Z,42.805,6.029,13.2997,4.60008,2470.483,2021-6-17T14:15:24Z
2021-06-17T12:17:13Z,42.805,6.029,13.3000,4.60007,2470.483,2021-6-17T14:18:27Z
2021-06-17T12:20:16Z,42.805,6.029,13.2996,4.60006,2470.53,2021-6-17T14:21:30Z
2021-06-17T12:23:19Z,42.805,6.029,13.2994,4.60005,2470.46,2021-6-17T14:24:33Z
2021-06-17T12:26:23Z,42.805,6.029,13.2995,4.60006,2470.483,2021-6-17T14:27:36Z
2021-06-17T12:29:26Z,42.805,6.029,13.2993,4.60007,2470.497,2021-6-17T14:30:39Z
2021-06-17T12:32:29Z,42.805,6.029,13.2998,4.60009,2470.437,2021-6-17T14:33:43Z
2021-06-17T12:35:32Z,42.805,6.029,13.2999,4.60004,2470.483,2021-6-17T14:36:46Z
2021-06-17T12:38:35Z,42.805,6.029,13.2996,4.60006,2470.483,2021-6-17T14:39:49Z
2021-06-17T12:41:38Z,42.805,6.029,13.2996,4.60007,2470.474,2021-6-17T14:42:52Z
2021-06-17T12:44:41Z,42.805,6.029,13.2999,4.60006,2470.437,2021-6-17T14:45:55Z
2021-06-17T12:47:44Z,42.805,6.029,13.2992,4.60007,2470.45,2021-6-17T14:48:58Z
2021-06-17T12:50:48Z,42.805,6.029,13.2994,4.60007,2470.483,2021-6-17T14:52:01Z
2021-06-17T12:53:51Z,42.805,6.029,13.2998,4.60006,2470.483,2021-6-17T14:55:04Z
2021-06-17T12:56:54Z,42.805,6.029,13.2993,4.60006,2470.437,2021-6-17T14:58:08Z
2021-06-17T12:59:57Z,42.805,6.029,13.2997,4.60007,2470.474,2021-6-17T15:01:11Z
2021-06-17T13:03:00Z,42.805,6.029,13.2996,4.60006,2470.474,2021-6-17T15:04:14Z
2021-06-17T13:06:03Z,42.805,6.029,13.2993,4.60006,2470.46,2021-6-17T15:07:17Z
2021-06-17T13:09:06Z,42.805,6.029,13.2997,4.60009,2470.423,2021-6-17T15:10:20Z
2021-06-17T13:12:09Z,42.805,6.029,13.2998,4.60006,2470.46,2021-6-17T15:13:23Z
2021-06-17T13:15:13Z,42.805,6.029,13.2996,4.60007,2470.474,2021-6-17T15:16:26Z
2021-06-17T13:18:16Z,42.805,6.029,13.2998,4.60006,2470.45,2021-6-17T15:19:29Z
2021-06-17T13:21:19Z,42.805,6.029,13.2994,4.60003,2470.45,2021-6-17T15:22:33Z
2021-06-17T13:24:22Z,42.805,6.029,13.2996,4.60004,2470.46,2021-6-17T15:25:36Z
2021-06-17T13:27:25Z,42.805,6.029,13.2998,4.60007,2470.47,2021-6-17T15:28:39Z
2021-06-17T13:30:28Z,42.805,6.029,13.2996,4.60006,2470.507,2021-6-17T15:31:42Z
2021-06-17T13:33:31Z,42.805,6.029,13.2996,4.60006,2470.497,2021-6-17T15:34:45Z
2021-06-17T13:36:34Z,42.805,6.029,13.2995,4.60006,2470.474,2021-6-17T15:37:48Z
2021-06-17T13:39:38Z,42.805,6.029,13.2994,4.60006,2470.45,2021-6-17T15:40:51Z
2021-06-17T13:42:41Z,42.805,6.029,13.2995,4.60006,2470.46,2021-6-17T15:43:54Z
2021-06-17T13:45:44Z,42.805,6.029,13.2998,4.60006,2470.483,2021-6-17T15:46:58Z
2021-06-17T13:48:47Z,42.805,6.029,13.2996,4.60003,2470.46,2021-6-17T15:50:01Z
2021-06-17T13:51:50Z,42.805,6.029,13.2993,4.60003,2470.46,2021-6-17T15:53:04Z
2021-06-17T13:54:53Z,42.805,6.029,13.2995,4.60003,2470.46,2021-6-17T15:56:07Z
2021-06-17T13:57:56Z,42.805,6.029,13.2996,4.60004,2470.497,2021-6-17T15:59:10Z
2021-06-17T14:01:00Z,42.805,6.029,13.2996,4.60005,2470.437,2021-6-17T16:02:13Z
2021-06-17T14:04:03Z,42.805,6.029,13.2999,4.60009,2470.437,2021-6-17T16:05:16Z
2021-06-17T14:07:06Z,42.805,6.029,13.2995,4.60005,2470.45,2021-6-17T16:08:19Z
2021-06-17T14:10:09Z,42.805,6.029,13.2995,4.60003,2470.45,2021-6-17T16:11:23Z
2021-06-17T14:13:12Z,42.805,6.029,13.2992,4.60004,2470.46,2021-6-17T16:14:26Z
2021-06-17T14:16:15Z,42.805,6.029,13.2993,4.60006,2470.437,2021-6-17T16:17:29Z
2021-06-17T14:19:18Z,42.805,6.029,13.2994,4.60003,2470.46,2021-6-17T16:20:32Z
2021-06-17T14:22:21Z,42.805,6.029,13.2995,4.60002,2470.46,2021-6-17T16:23:35Z
2021-06-17T14:25:25Z,42.805,6.029,13.2994,4.60004,2470.437,2021-6-17T16:26:38Z
2021-06-17T14:28:28Z,42.805,6.029,13.2997,4.60004,2470.474,2021-6-17T16:29:41Z
2021-06-17T14:31:31Z,42.805,6.029,13.2993,4.60003,2470.437,2021-6-17T16:32:45Z
2021-06-17T14:34:34Z,42.805,6.029,13.2994,4.60003,2470.46,2021-6-17T16:35:48Z
2021-06-17T14:37:37Z,42.805,6.029,13.2994,4.60004,2470.474,2021-6-17T16:38:51Z
2021-06-17T14:40:40Z,42.805,6.029,13.2996,4.60003,2470.413,2021-6-17T16:41:54Z
2021-06-17T14:43:43Z,42.805,6.029,13.2991,4.60003,2470.45,2021-6-17T16:44:57Z
2021-06-17T14:46:46Z,42.805,6.029,13.2994,4.60004,2470.474,2021-6-17T16:48:00Z
2021-06-17T14:49:50Z,42.805,6.029,13.2995,4.60005,2470.46,2021-6-17T16:51:03Z
2021-06-17T14:52:53Z,42.805,6.029,13.2994,4.60003,2470.46,2021-6-17T16:54:06Z
2021-06-17T14:55:56Z,42.805,6.029,13.2996,4.60002,2470.474,2021-6-17T16:57:10Z
2021-06-17T14:58:59Z,42.805,6.029,13.2998,4.60002,2470.46,2021-6-17T17:00:13Z
2021-06-17T15:02:02Z,42.805,6.029,13.2997,4.60003,2470.437,2021-6-17T17:03:16Z
2021-06-17T15:05:05Z,42.805,6.029,13.2993,4.60003,2470.483,2021-6-17T17:06:19Z
2021-06-17T15:08:08Z,42.805,6.029,13.2996,4.60006,2470.483,2021-6-17T17:09:22Z
2021-06-17T15:11:11Z,42.805,6.029,13.2996,4.60003,2470.427,2021-6-17T17:12:25Z
2021-06-17T15:14:15Z,42.805,6.029,13.2997,4.60003,2470.45,2021-6-17T17:15:28Z